TimeCDT,TemperatureF,Dew PointF,Humidity,Sea Level PressureIn,VisibilityMPH,Wind Direction,Wind SpeedMPH,Gust SpeedMPH,PrecipitationIn,Events,Conditions,WindDirDegrees,DateUTC
12:15 AM,60.8,42.8,52,30.21,10.0,South,5.8,-,N/A,,Clear,180,2013-03-15 05:15:00
12:35 AM,60.8,42.8,52,30.21,10.0,South,8.1,-,N/A,,Clear,190,2013-03-15 05:35:00
12:55 AM,60.8,42.8,52,30.20,10.0,South,8.1,-,N/A,,Clear,180,2013-03-15 05:55:00
1:15 AM,59.0,42.8,55,30.20,10.0,South,8.1,-,N/A,,Clear,180,2013-03-15 06:15:00
1:35 AM,59.0,42.8,55,30.20,10.0,South,9.2,-,N/A,,Clear,190,2013-03-15 06:35:00
1:55 AM,59.0,42.8,55,30.20,10.0,SSW,12.7,-,N/A,,Clear,200,2013-03-15 06:55:00
2:15 AM,59.0,42.8,55,30.19,10.0,SSW,11.5,-,N/A,,Clear,200,2013-03-15 07:15:00
2:35 AM,59.0,44.6,59,30.19,10.0,SSW,11.5,-,N/A,,Clear,200,2013-03-15 07:35:00
2:55 AM,57.2,44.6,63,30.18,10.0,SSW,11.5,-,N/A,,Clear,200,2013-03-15 07:55:00
3:15 AM,55.4,44.6,67,30.18,10.0,SSW,9.2,-,N/A,,Clear,200,2013-03-15 08:15:00
3:35 AM,55.4,44.6,67,30.18,10.0,SSW,8.1,-,N/A,,Clear,210,2013-03-15 08:35:00
3:55 AM,55.4,44.6,67,30.18,10.0,SSW,8.1,-,N/A,,Clear,210,2013-03-15 08:55:00
4:15 AM,55.4,44.6,67,30.17,10.0,SSW,10.4,-,N/A,,Clear,200,2013-03-15 09:15:00
4:35 AM,55.4,44.6,67,30.17,10.0,SSW,10.4,-,N/A,,Clear,200,2013-03-15 09:35:00
4:55 AM,55.4,44.6,67,30.17,10.0,SSW,12.7,-,N/A,,Clear,200,2013-03-15 09:55:00
5:15 AM,55.4,46.4,72,30.17,10.0,SSW,12.7,-,N/A,,Clear,210,2013-03-15 10:15:00
5:35 AM,55.4,46.4,72,30.17,10.0,SSW,13.8,-,N/A,,Clear,210,2013-03-15 10:35:00
5:55 AM,55.4,46.4,72,30.17,10.0,SSW,13.8,-,N/A,,Clear,210,2013-03-15 10:55:00
6:15 AM,55.4,46.4,72,30.17,10.0,SSW,15.0,-,N/A,,Clear,210,2013-03-15 11:15:00
6:35 AM,55.4,46.4,72,30.17,10.0,SSW,12.7,-,N/A,,Clear,210,2013-03-15 11:35:00
6:55 AM,55.4,46.4,72,30.17,10.0,SSW,12.7,-,N/A,,Clear,210,2013-03-15 11:55:00
7:15 AM,55.4,46.4,72,30.18,10.0,SSW,11.5,-,N/A,,Clear,210,2013-03-15 12:15:00
7:35 AM,53.6,46.4,77,30.18,10.0,SSW,10.4,-,N/A,,Clear,210,2013-03-15 12:35:00
7:55 AM,53.6,46.4,77,30.18,10.0,SSW,9.2,-,N/A,,Clear,210,2013-03-15 12:55:00
8:15 AM,55.4,48.2,77,30.18,10.0,SSW,10.4,-,N/A,,Clear,210,2013-03-15 13:15:00
8:35 AM,55.4,48.2,77,30.17,10.0,SSW,12.7,-,N/A,,Clear,210,2013-03-15 13:35:00
8:55 AM,57.2,48.2,72,30.17,10.0,SSW,16.1,21.9,N/A,,Clear,210,2013-03-15 13:55:00
9:15 AM,59.0,50.0,72,30.16,10.0,SSW,21.9,26.5,N/A,,Clear,210,2013-03-15 14:15:00
9:35 AM,60.8,50.0,68,30.17,10.0,SW,17.3,23.0,N/A,,Clear,220,2013-03-15 14:35:00
9:55 AM,62.6,50.0,63,30.17,10.0,SW,17.3,26.5,N/A,,Clear,220,2013-03-15 14:55:00
10:55 AM,66.2,50.0,56,30.16,10.0,SW,17.3,26.5,N/A,,Clear,220,2013-03-15 15:55:00
11:15 AM,68.0,50.0,52,30.16,10.0,SW,15.0,23.0,N/A,,Clear,220,2013-03-15 16:15:00
11:35 AM,68.0,50.0,52,30.16,10.0,WSW,18.4,24.2,N/A,,Clear,240,2013-03-15 16:35:00
11:55 AM,69.8,50.0,49,30.16,10.0,SW,20.7,26.5,N/A,,Clear,230,2013-03-15 16:55:00
12:15 PM,69.8,50.0,49,30.14,10.0,SW,19.6,28.8,N/A,,Clear,230,2013-03-15 17:15:00
12:35 PM,71.6,51.8,50,30.14,10.0,SW,19.6,24.2,N/A,,Clear,220,2013-03-15 17:35:00
12:55 PM,71.6,50.0,46,30.13,10.0,SSW,21.9,27.6,N/A,,Clear,210,2013-03-15 17:55:00
1:15 PM,73.4,50.0,44,30.12,10.0,SW,20.7,27.6,N/A,,Clear,220,2013-03-15 18:15:00
1:35 PM,73.4,50.0,44,30.11,10.0,SW,16.1,26.5,N/A,,Clear,220,2013-03-15 18:35:00
1:55 PM,73.4,48.2,41,30.09,10.0,SW,20.7,26.5,N/A,,Clear,220,2013-03-15 18:55:00
2:15 PM,75.2,48.2,38,30.08,10.0,SW,19.6,29.9,N/A,,Clear,220,2013-03-15 19:15:00
2:35 PM,77.0,50.0,39,30.06,10.0,SW,18.4,25.3,N/A,,Clear,220,2013-03-15 19:35:00
2:55 PM,77.0,46.4,34,30.05,10.0,SW,21.9,28.8,N/A,,Clear,220,2013-03-15 19:55:00
3:15 PM,77.0,44.6,32,30.04,10.0,SW,18.4,26.5,N/A,,Clear,220,2013-03-15 20:15:00
3:35 PM,77.0,44.6,32,30.02,10.0,SSW,20.7,27.6,N/A,,Clear,210,2013-03-15 20:35:00
3:55 PM,77.0,42.8,29,30.02,10.0,SW,20.7,28.8,N/A,,Clear,220,2013-03-15 20:55:00
4:15 PM,77.0,44.6,32,30.01,10.0,SSW,23.0,27.6,N/A,,Clear,210,2013-03-15 21:15:00
4:35 PM,77.0,42.8,29,30.01,10.0,SSW,19.6,26.5,N/A,,Clear,210,2013-03-15 21:35:00
4:55 PM,77.0,42.8,29,30.00,10.0,South,20.7,29.9,N/A,,Clear,190,2013-03-15 21:55:00
5:15 PM,77.0,41.0,28,30.00,10.0,SSW,21.9,29.9,N/A,,Clear,210,2013-03-15 22:15:00
5:35 PM,77.0,39.2,26,29.99,10.0,SW,23.0,31.1,N/A,,Clear,220,2013-03-15 22:35:00
5:55 PM,77.0,37.4,24,29.99,10.0,SW,19.6,29.9,N/A,,Clear,220,2013-03-15 22:55:00
6:15 PM,77.0,39.2,26,29.98,10.0,SW,19.6,24.2,N/A,,Clear,220,2013-03-15 23:15:00
6:35 PM,75.2,41.0,29,29.97,10.0,SSW,17.3,25.3,N/A,,Clear,210,2013-03-15 23:35:00
6:55 PM,73.4,42.8,33,29.96,10.0,SSW,11.5,-,N/A,,Clear,210,2013-03-15 23:55:00
7:15 PM,71.6,42.8,35,29.96,10.0,SSW,10.4,-,N/A,,Clear,210,2013-03-16 00:15:00
7:35 PM,69.8,44.6,40,29.96,10.0,SSW,9.2,-,N/A,,Clear,210,2013-03-16 00:35:00
7:55 PM,69.8,42.8,38,29.96,10.0,SSW,10.4,-,N/A,,Clear,200,2013-03-16 00:55:00
8:15 PM,69.8,41.0,35,29.96,10.0,SSW,13.8,-,N/A,,Clear,210,2013-03-16 01:15:00
8:35 PM,69.8,41.0,35,29.96,10.0,SSW,11.5,-,N/A,,Clear,210,2013-03-16 01:35:00
8:55 PM,69.8,39.2,33,29.96,10.0,SSW,11.5,-,N/A,,Clear,200,2013-03-16 01:55:00
9:15 PM,69.8,39.2,33,29.96,10.0,South,10.4,-,N/A,,Clear,190,2013-03-16 02:15:00
9:55 PM,68.0,41.0,37,29.96,10.0,South,12.7,17.3,N/A,,Clear,190,2013-03-16 02:55:00
10:15 PM,68.0,41.0,37,29.95,10.0,South,11.5,-,N/A,,Clear,190,2013-03-16 03:15:00
10:35 PM,66.2,41.0,40,29.95,10.0,South,12.7,17.3,N/A,,Clear,190,2013-03-16 03:35:00
10:55 PM,68.0,41.0,37,29.94,10.0,South,13.8,-,N/A,,Clear,190,2013-03-16 03:55:00
11:15 PM,66.2,42.8,43,29.94,10.0,South,16.1,-,N/A,,Clear,190,2013-03-16 04:15:00
11:35 PM,66.2,42.8,43,29.94,10.0,South,17.3,-,N/A,,Clear,190,2013-03-16 04:35:00
11:55 PM,66.2,44.6,46,29.93,10.0,South,16.1,24.2,N/A,,Clear,190,2013-03-16 04:55:00